Flag for Malta Weather past 2 weeks in Valletta, Malta

Now
50 °F

Partly sunny.


Feels Like: 47 °F
Forecast: 44 / 58 °F
Wind: 7 mph from Northwest

Location: Luqa

Current Time: Jan 26, 2015 at 4:39:47 PM

Latest Report: Jan 26, 2015 at 4:15 PM


Visibility: N/A

Pressure: 29.89 "Hg

Humidity: 82%

Dew point: 45 °F

Location of VallettaLocation

Historic Weather in Valletta — Graph

°F

Valletta temperature yesterday

Maximum temperature yesterday: 59 °F (at 12:45 PM)
Minimum temperature yesterday: 50 °F (at 4:45 AM)
Average temperature yesterday: 53 °F

Past Weeks' High & Low Weather Summary

 TemperatureHumidityPressure
High64 °F (Jan 12, 12:15 PM)100% (Jan 15, 10:15 PM)30.48 "Hg (Jan 15, 10:15 PM)
Low48 °F (Jan 13, 2:15 AM)56% (Jan 15, 12:15 PM)29.62 "Hg (Jan 23, 3:45 AM)
Average56 °F81%30.00 "Hg
* Reported Jan 11 3:15 PM — Jan 26 3:15 PM, Valletta, Weather by CustomWeather, © 2014

Note: Actual official high and low records may vary slightly from our data, if they occured in-between our weather recording intervals... More about our weather records

Advertising

Valletta weather history for previous 24 hours

 ConditionsComfort  
Time TempWeatherWind HumidityBarometerVisibility
3:15 PM
Jan 26
50 °FThunderstorms. Partly sunny.13 mph82%29.89 "Hg6 mi
2:45 PM57 °FBroken clouds.7 mph63%29.89 "HgN/A
2:15 PM57 °FScattered clouds.8 mph63%29.89 "HgN/A
1:45 PM55 °FThunderstorms. Broken clouds.3 mph72%29.89 "HgN/A
1:15 PM54 °FThunderstorms. Broken clouds.6 mph72%29.89 "HgN/A
12:45 PM55 °FScattered clouds.9 mph72%29.92 "HgN/A
12:15 PM52 °FThunderstorms. Partly sunny.6 mph77%29.92 "HgN/A
11:45 AM55 °FThunderstorms. Partly sunny.14 mph63%29.95 "HgN/A
11:15 AM57 °FScattered clouds.13 mph63%29.92 "HgN/A
10:45 AM57 °FPassing clouds.12 mph63%29.95 "HgN/A
10:15 AM57 °FPassing clouds.10 mph59%29.95 "HgN/A
9:45 AM57 °FPassing clouds.9 mph59%29.95 "HgN/A
9:15 AM55 °FPassing clouds.8 mph67%29.95 "HgN/A
8:45 AM55 °FPassing clouds.3 mph72%29.95 "HgN/A
8:15 AM52 °FPassing clouds.3 mph72%29.95 "HgN/A
7:45 AM48 °FPassing clouds.3 mph76%29.95 "HgN/A
7:15 AM50 °FPassing clouds.6 mph71%29.95 "HgN/A
6:45 AM48 °FClear.5 mph76%29.92 "Hg10 mi
6:15 AM48 °FPassing clouds.5 mph82%29.92 "HgN/A
5:45 AM50 °FPassing clouds.9 mph76%29.92 "HgN/A
5:15 AM48 °FPassing clouds.10 mph82%29.92 "HgN/A
4:45 AM50 °FLight rain. Passing clouds.13 mph82%29.95 "Hg6 mi
4:15 AM50 °FThunderstorms. Overcast.13 mph71%29.92 "HgN/A
3:45 AM50 °FPassing clouds.9 mph76%29.95 "HgN/A
3:15 AM50 °FClear.12 mph76%29.92 "Hg10 mi
2:45 AM50 °FPassing clouds.14 mph76%29.95 "HgN/A
2:15 AM52 °FClear.12 mph72%29.92 "Hg10 mi
1:45 AM52 °FMostly cloudy.8 mph77%29.92 "HgN/A
1:15 AM50 °FClear.3 mph82%29.92 "Hg10 mi
12:45 AM52 °FClear.3 mph77%29.92 "Hg10 mi
12:15 AM50 °FPassing clouds.5 mph82%29.92 "HgN/A
11:45 PM
Jan 25
52 °FClear.5 mph82%29.95 "Hg10 mi
11:15 PM52 °FPassing clouds.6 mph82%29.95 "HgN/A
10:45 PM50 °FClear.6 mph82%29.92 "Hg10 mi
10:15 PM52 °FPassing clouds.6 mph77%29.92 "HgN/A
9:45 PM52 °FPassing clouds.6 mph82%29.92 "HgN/A
9:15 PM50 °FPassing clouds.6 mph94%29.92 "HgN/A
8:45 PM50 °FPassing clouds.7 mph94%29.92 "HgN/A
8:15 PM50 °FPassing clouds.7 mph88%29.89 "HgN/A
7:45 PM52 °FPassing clouds.8 mph82%29.89 "HgN/A
7:15 PM52 °FPassing clouds.8 mph82%29.89 "HgN/A
6:45 PM50 °FPassing clouds.6 mph88%29.89 "HgN/A
6:15 PM50 °FPassing clouds.8 mph94%29.89 "HgN/A
5:45 PM50 °FSprinkles. Passing clouds.12 mph82%29.86 "HgN/A
5:15 PM52 °FPartly sunny.9 mph88%29.86 "HgN/A
4:45 PM50 °FSprinkles. Partly sunny.12 mph88%29.86 "HgN/A
4:15 PM54 °FPartly sunny.17 mph77%29.86 "HgN/A
Weather by CustomWeather, © 2014

See weather overviewHow to use our weather pages